STARLINK-4744

decayed
NORAD ID: 53788 Int'l Des: 2022-111 Owner: SPXS Country: US Constellation: starlink
LEOCIRCULAR
Group

About STARLINK-4744

Description loading...

Altitude History

Altitude vs Time

uPlot chart will show altitude changes over time

Two-Line Element Set

1 53788U 22111R 22319.01891120 .29572240 12335-4 20386-2 0 9997
2 53788 53.1835 299.3504 0003276 120.0606 347.5950 16.40463313 10233
Epoch: Nov 15, 2022 • Age: 24698 hours

Current Status

Position data unavailable
Launch Date Sep 11, 2022
Age 2.9 years
Decay Date Nov 15, 2022
Type internet

Technical Details

Classification Payload
Mass 305.00 kg
Dry Mass 290.00 kg
Total Mass 305.00 kg
Length 0.20 m
Diameter 2.80 m
Span 9.00 m
Shape Box + pan
Manufacturer SPXS
Bus Type Starlink
Phase Status Reentered
Owner/State SPXS/US

Large Constellations

Loading constellations...